Regional Weather Roundup
Issued by NWS Melbourne, FL

Current Version | Previous Version | Text Only | Print | Product List | Glossary On
Versions: 1 2 3 4 5 6 7 8 9 10 11 12 13 14 15 16 17 18 19 20 21 22 23 24 25 26 27 28 29 30 31 32 33 34 35 36 37 38 39 40 41 42 43 44 45 46 47 48 49 50
000
ASUS42 KMLB 070512
RWRMLB
HOURLY WEATHER ROUNDUP AROUND FLORIDA
NATIONAL WEATHER SERVICE OFFICE MELBOURNE FL
1200 AM EST SAT DEC 07 2019

CITY           SKY/WX    TMP DP  RH WIND       PRES   REMARKS
MELBOURNE      FAIR      58  54  86 SW5       30.16S
FORT PIERCE    FAIR      52  49  89 CALM      30.14F
ORLANDO INTL   FAIR      59  50  72 N3        30.16F
DAYTONA BEACH  FAIR      54  54 100 CALM      30.15F
VERO BEACH     FAIR      54  51  90 CALM      30.15F
$$
...ELSEWHERE ACROSS CENTRAL FLORIDA...

CITY           SKY/WX    TMP DP  RH WIND       PRES   REMARKS
PATRICK AFB    FAIR      61  61 100 W7        30.14F
KSC            FAIR      57  55  94 CALM      30.14F
CAPE CANAVERAL FAIR      57  55  92 W5        30.14F
ORLANDO EXEC   FAIR      55  50  83 CALM      30.15F
LEESBURG       FAIR      52  47  83 CALM      30.15F
SANFORD        FAIR      56  50  80 CALM      30.15F
DELAND         FAIR      52  50  93 CALM      30.14F
WINTER HAVEN   FAIR      55  47  74 CALM      30.17F
KISSIMMEE      FAIR      54  51  90 CALM      30.16F
OKEECHOBEE       N/A     52  50  93 CALM      30.16F
TAMPA          FAIR      56  46  69 CALM      30.16F
$$
...NORTHERN FLORIDA...

CITY           SKY/WX    TMP DP  RH WIND       PRES   REMARKS
PALM COAST     FAIR      50  49  97 CALM      30.14F FOG
ST AUGUSTINE   FAIR      54  52  93 CALM      30.16F
OCALA          FAIR      44  42  93 CALM      30.16F
GAINESVILLE    FAIR      47  42  83 CALM      30.18S
JACKSONVILLE   FAIR      49  46  90 CALM      30.16S
TALLAHASSEE    FAIR      55  50  83 CALM      30.14F
$$
...ALONG THE SOUTHEAST COAST TO THE KEYS...

CITY           SKY/WX    TMP DP  RH WIND       PRES   REMARKS
STUART         FAIR      59  55  88 CALM      30.16F
WEST PALM BCH  FAIR      64  58  80 CALM      30.16F
MIAMI          FAIR      68  57  68 NW3       30.16F
KEY WEST       MOCLDY    69  65  86 N5        30.16F
$$
...MARINE REPORTS...

STATION/POSITION TIME  TEMP    WIND        PRES    WAVE   SWELL
                       AIR SEA DIR/SP/G            HT/PER HT/PER
                 (UTC) (F)     (DEG/KT/KT) (MB)    (FT/S) (FT/S)
ST AUGUSTINE FP  0500   63 67  280/  3/  4 1020.9F
20NM E CAPE CANA 0450   73 77  230/  8/ 12 1021.1F   2/ 9   2/ 9
TRIDENT PIER     0430   64 69  250/  5/  5 1022.4F
SEBASTIAN INLET  0445   65 64  230/  6     1022.0S
4NM E PORT CANAV 0500      70                N/A     1/ 9
6NM NE FPR INLET 0500      73                N/A     2/10
SETTLEMENT PT GB 0500   70     110/  3/  4 1021.2F
$$



USA.gov is the U.S. government's official web portal to all federal, state and local government web resources and services.